Location: Unspecified
(42.7170°S, 0.0000°E)
Time: 01:33:32
(UTC+00:00)

N. Korean satellite - Pass Details

Date: 25 May 2019
Orbit: 455 x 510 km, 97.2° (Epoch: 16 June)

Event Time Altitude Azimuth Distance (km) Brightness Sun altitude
Exits shadow 19:29:50 - 209° (SSW) 2,017 10.0 -30.9°
Reaches altitude 10° 19:31:25 10° 229° (SW) 1,734 9.9 -31.2°
Maximum altitude 19:32:20 11° 244° (WSW) 1,687 10.0 -31.4°
Drops below altitude 10° 19:33:15 10° 258° (WSW) 1,735 10.2 -31.5°
Sets 19:36:54 0° 296° (WNW) 2,618 11.2 -32.2°
